Terminal Aerodrome Forecast
Issued by NWS Albany, NY

Home | Current Version | Previous Version | Text Only | Print | Product List | Glossary On
Versions: 1 2 3 4 5 6 7 8 9 10 11 12 13 14 15 16 17
938
FTUS41 KALY 090542
TAFGFL
TAF
KGFL 090542Z 0906/1006 05005KT 3SM -SN OVC025
      TEMPO 0906/0910 1 1/2SM -SN OVC015
     FM091000 VRB03KT 6SM -SN OVC015
     FM091500 VRB03KT P6SM BKN015 OVC025
     FM092200 VRB03KT P6SM BKN025 OVC050
     FM100300 VRB03KT 5SM BR OVC025=

USA.gov is the U.S. government's official web portal to all federal, state and local government web resources and services.